Namest Nad Oslav, Czech Republic

2:43 PM CET on December 15, 2019 (GMT +0100)
Namest

Weather History for LKNA - August, 2019

Change the Weather History Date:

Sunday, August 18, 2019

  Actual Average (WUND) Record (WUND)
Temperature  
Mean Temperature 74 °F -  
Max Temperature 87 °F - - (-1)
Min Temperature 62 °F - - (-1)
Cooling Degree Days 10    
Growing Degree Days 24 (Base 50)    
Moisture  
Dew Point 56 °F    
Average Humidity 52    
Maximum Humidity 82    
Minimum Humidity 26    
Precipitation  
Precipitation 0.00 in - - ()
Sea Level Pressure  
Sea Level Pressure 29.90 in    
Wind  
Wind Speed 6 mph ()    
Max Wind Speed 13 mph    
Max Gust Speed -    
Visibility 17.3 miles    
Events Rain    
Averages and records for this station are not official NWS values.
T = Trace of Precipitation, MM = Missing Value Source: Averaged Metar Reports

Daily Weather History Graph

Daily Weather History Graph

Search for Another Location

Airport or City:

Astronomy

Aug. 18, 2019 Rise Set
Actual Time 5:50 AM CEST 8:06 PM CEST
Civil Twilight 5:16 AM CEST 8:41 PM CEST
Nautical Twilight 4:32 AM CEST 9:24 PM CEST
Astronomical Twilight 3:42 AM CEST 10:14 PM CEST
Moon 9:41 PM CEST (8/18) 8:29 AM CEST (8/18)
Length of Visible Light 15h 25m
Length of Day
14h 15m
Waning Gibbous, 93% of the Moon is Illuminated
Aug 18
Waning Gibbous
Aug 23
Last Quarter
Aug 30
New
Sep 6
First Quarter
Sep 14
Full

Hourly Weather History & Observations

Time (CEST) Temp. Heat Index Dew Point Humidity Pressure Visibility Wind Dir Wind Speed Gust Speed Precip Events Conditions
12:00 AM 66 °F - 53 °F 54% 29.94 in 19 mi WSW 4.5 mph - - Rain Light Rain Showers
12:00 AM 66.2 °F - 55.4 °F 68% 29.98 in - SW 4.6 mph - N/A   Clear
1:00 AM 65 °F - 53 °F 57% 29.93 in 19 mi North 4.5 mph - -   Overcast
1:00 AM 64.4 °F - 57.2 °F 77% 29.95 in - NNE 3.5 mph - N/A   Clear
2:00 AM 65 °F - 53 °F 56% 29.93 in 19 mi North 2.2 mph - -   Partly Cloudy
4:00 AM 64.4 °F - 53.6 °F 68% 29.95 in - ESE 3.5 mph - N/A   Clear
5:00 AM 64 °F - 53 °F 59% 29.91 in 19 mi SE 4.5 mph - -   Overcast
5:00 AM 64.4 °F - 53.6 °F 68% 29.92 in - SSE 4.6 mph - N/A   Clear
6:00 AM 62 °F - 56 °F 73% 29.90 in 19 mi South 6.7 mph - -   Mostly Cloudy
6:00 AM 62.6 °F - 55.4 °F 77% 29.92 in - SSW 4.6 mph - N/A   Clear
7:00 AM 62.6 °F - 57.2 °F 82% 29.92 in - SW 4.6 mph - N/A   Clear
8:00 AM 64.4 °F - 57.2 °F 77% 29.92 in - SW 4.6 mph - N/A   Clear
9:00 AM 67 °F - 57 °F 61% 29.91 in 16 mi SSW 6.7 mph - -   Mostly Cloudy
9:00 AM 68.0 °F - 57.2 °F 68% 29.95 in - SSW 5.8 mph - N/A   Clear
10:00 AM 71.6 °F - 57.2 °F 60% 29.95 in - SSW 5.8 mph - N/A   Clear
11:00 AM 73 °F - 57 °F 48% 29.88 in 22 mi South 6.7 mph - -   Mostly Cloudy
11:00 AM 73.4 °F - 57.2 °F 57% 29.95 in - South 6.9 mph - N/A   Clear
12:00 PM 77 °F - 55 °F 36% 29.87 in 19 mi SSE 11.2 mph - -   Scattered Clouds
1:00 PM 79 °F - 56 °F 35% 29.86 in 19 mi South 13.4 mph - -   Scattered Clouds
1:00 PM 80.6 °F 80.5 °F 55.4 °F 42% 29.92 in 6.2 mi SSE 12.7 mph - N/A   Partly Cloudy
2:00 PM 80 °F - 56 °F 33% 29.84 in 19 mi SSE 8.9 mph - -   Scattered Clouds
3:00 PM 84.2 °F 83.8 °F 59.0 °F 42% 29.92 in 6.2 mi South 8.1 mph - N/A   Partly Cloudy
4:00 PM 83 °F - 58 °F 32% 29.81 in 19 mi SE 13.4 mph - -   Scattered Clouds
4:00 PM 84.2 °F 83.5 °F 57.2 °F 40% 29.89 in - SSE 12.7 mph - N/A   Clear
5:00 PM 84 °F - 60 °F 34% 29.81 in 19 mi SE 11.2 mph - -   Partly Cloudy
5:00 PM 84.2 °F 83.8 °F 59.0 °F 42% 29.89 in - SE 11.5 mph - N/A   Clear
6:00 PM 86.0 °F 85.4 °F 59.0 °F 40% 29.89 in - West 5.8 mph - N/A   Clear
7:00 PM 85 °F - 56 °F 26% 29.81 in 19 mi SW 6.7 mph - -   Scattered Clouds
7:00 PM 86.0 °F 84.2 °F 53.6 °F 33% 29.89 in - WSW 6.9 mph - N/A   Clear
8:00 PM 81 °F - 56 °F 32% 29.82 in 19 mi SE 6.7 mph - -  
8:00 PM 82.4 °F 81.7 °F 55.4 °F 39% 29.89 in - SE 4.6 mph - N/A   Clear
9:00 PM 78.8 °F - 59.0 °F 51% 29.89 in - SSE 9.2 mph - N/A   Clear
10:00 PM 76 °F - 59 °F 45% 29.84 in 19 mi SSE 8.9 mph - -   Scattered Clouds
10:00 PM 77.0 °F - 59.0 °F 54% 29.89 in - SSE 9.2 mph - N/A   Clear
11:00 PM 74 °F - 58 °F 48% 29.84 in 19 mi SSE 8.9 mph - -   Scattered Clouds
11:00 PM 75.2 °F - 59.0 °F 57% 29.89 in - SSE 9.2 mph - N/A   Clear